Vertical_Velocity
0 -1 -2 -2 -1 -0 1 4 4 4 3 1 -0 -1 -2 -2 -2 -2 -1 2 1 -2 -3 -1 9 17 21 21 21 19 18 16 12 10 10 11 13 14 14 14 15 17 19 20 19 18 17 15 13 12 12 12 11 11 11 13 16 19 22 23 20 18 18 18 17 15 14 13 12
-0 -1 -1 -2 -2 -1 1 3 3 3 1 -0 -2 -3 -4 -6 -6 -4 -2 0 -1 -3 -4 -4 2 10 18 23 24 24 23 20 16 14 13 15 16 15 13 11 9 8 7 8 9 9 9 9 10 11 12 13 15 16 17 18 20 19 18 14 12 12 12 12 12 12 13 12 10
0 -1 -1 -2 -1 0 1 3 3 2 1 0 -1 -3 -5 -6 -7 -6 -4 -1 -2 -3 -4 -3 -1 1 5 9 12 16 20 24 24 23 21 20 19 16 14 12 10 8 5 4 3 3 3 5 9 12 13 14 15 16 17 17 17 16 13 8 5 3 3 3 4 6 6 6 5
-1 -2 -3 -2 0 2 4 6 5 5 4 4 3 1 -1 -3 -4 -4 -3 -2 -2 -2 -3 -2 -1 -1 0 2 3 6 11 19 27 31 30 27 23 19 16 14 12 10 7 5 3 2 2 5 8 11 12 11 10 10 11 11 11 11 10 8 6 4 1 -1 -1 -0 0 0 0
-3 -3 -2 -1 -0 2 4 6 9 9 9 8 8 7 6 4 1 -1 -2 -2 -2 -2 -2 -2 -2 -1 -0 1 1 1 3 7 16 22 24 21 17 13 10 8 7 6 5 5 3 2 2 4 6 7 7 7 6 6 7 9 10 11 11 10 10 8 6 3 1 -1 -2 -2 -2
-4 -3 -2 -0 1 1 1 5 9 10 9 8 8 9 10 9 6 4 1 -1 -1 -1 -2 -2 -1 -1 0 1 2 1 1 0 3 5 6 6 4 3 2 1 0 0 0 1 0 0 1 2 5 6 8 9 9 9 10 12 12 13 13 13 13 13 12 11 8 6 3 1 1
-5 -4 -1 2 2 2 4 8 8 8 7 7 8 8 8 9 9 8 7 5 3 2 1 0 0 1 1 2 2 2 1 -0 -0 -0 -0 0 0 0 -0 -0 -0 -0 0 1 2 3 5 8 10 11 12 12 11 11 10 10 10 10 10 11 12 13 13 13 12 10 8 6 4
-6 -5 -2 2 3 4 6 9 8 7 7 7 6 4 4 4 6 7 8 8 6 5 4 3 2 2 2 2 2 1 0 0 0 0 0 1 1 1 1 2 3 4 5 6 8 10 11 12 11 10 8 7 6 5 5 5 5 5 5 5 5 6 6 6 6 6 5 4 4
-4 -1 2 4 6 8 9 9 8 7 7 7 4 2 1 0 1 2 4 6 6 5 5 3 2 2 2 2 1 0 -1 -1 -0 0 1 2 2 3 4 5 6 6 7 9 10 11 10 8 6 4 3 2 1 1 1 1 2 2 2 2 2 2 1 0 -0 -0 0 2 2
1 4 5 5 8 9 9 8 8 7 6 5 3 1 0 -1 -1 -0 1 3 5 4 3 3 3 2 2 2 1 -0 -2 -2 -2 -1 0 1 2 3 4 5 6 6 7 8 8 8 6 4 1 0 -0 -1 -1 -1 -0 0 1 2 2 2 2 2 2 1 0 1 2 4 4
4 4 3 3 6 7 7 7 7 6 4 3 2 1 0 -0 -0 0 1 2 2 2 1 2 1 1 1 1 0 -1 -2 -3 -2 -1 1 3 4 5 5 4 4 4 4 5 5 4 2 0 -1 -1 -1 -2 -3 -2 -1 -0 1 2 2 3 3 4 4 3 3 4 6 6 5
4 3 1 1 4 6 7 7 6 6 4 2 1 -0 -0 0 1 2 3 2 2 2 2 2 0 0 1 1 1 1 1 0 1 2 4 6 6 5 4 3 2 1 2 2 2 1 0 -0 0 0 -0 -1 -2 -2 -2 -1 0 1 2 3 3 3 4 4 3 3 4 4 4
4 2 0 0 3 5 6 7 7 6 5 2 -0 -1 -1 0 3 5 6 6 6 6 6 5 4 5 7 8 9 9 9 9 8 7 6 5 4 3 2 0 -0 -1 -1 -0 -0 -0 0 1 1 1 -0 -1 -1 -2 -2 -1 -1 -1 0 1 1 2 2 2 1 1 2 4 4
5 4 3 3 5 5 6 6 6 5 3 1 -2 -2 -2 -1 1 4 7 8 8 7 6 5 6 6 7 8 10 10 11 10 8 6 4 3 2 1 0 -1 -1 -2 -2 -1 -1 -0 0 1 0 -0 -1 -2 -2 -2 -2 -3 -3 -2 -1 -0 -0 0 0 0 0 1 2 4 4
5 6 7 6 4 3 3 4 4 3 1 -1 -2 -3 -2 -2 -1 1 4 7 7 6 5 4 4 4 4 4 4 5 7 7 7 5 4 2 1 0 -0 -1 -1 -1 -1 -1 -1 -1 -1 -1 -2 -3 -3 -3 -3 -3 -3 -4 -4 -3 -3 -2 -1 -1 -1 -0 0 1 2 3 2
3 5 6 4 0 -1 0 2 0 -0 -1 -2 -2 -2 -2 -2 -2 -1 0 4 6 6 5 4 3 3 3 3 4 5 6 7 7 7 6 4 2 1 0 0 -0 -1 -1 -1 -2 -2 -2 -3 -3 -3 -3 -3 -3 -3 -4 -4 -4 -4 -3 -3 -2 -2 -2 -1 -1 -0 0 1 0
2 2 2 1 -0 -0 0 1 -0 -1 -1 -0 -0 -0 -1 -1 -1 -1 -1 1 4 5 5 4 4 3 3 3 4 4 5 6 7 7 7 6 4 3 2 2 1 0 -1 -1 -1 -2 -2 -2 -2 -2 -2 -2 -2 -3 -3 -3 -3 -3 -3 -3 -3 -2 -2 -1 -1 -1 -0 -1 -1
7 5 4 3 4 6 6 6 5 5 5 5 5 4 3 3 2 1 1 2 3 4 5 5 4 4 3 3 3 2 2 3 4 4 5 5 5 4 4 3 2 1 0 -0 -0 -0 -1 -1 -1 -1 -1 -2 -2 -2 -2 -3 -3 -2 -2 -2 -1 -1 -1 -1 -0 -0 -0 -1 -0
14 11 8 7 8 10 12 11 9 8 7 6 6 6 6 5 5 4 4 4 3 4 4 4 4 4 4 4 3 2 1 1 1 1 1 1 2 2 2 1 0 -0 -0 -1 -1 -1 -1 -2 -2 -2 -2 -3 -3 -4 -4 -4 -4 -3 -2 -2 -1 -0 0 0 1 1 0 0 0
14 12 10 8 8 9 9 8 7 6 5 5 5 5 5 5 5 5 5 4 4 4 3 3 3 3 3 3 3 2 1 1 0 -0 -1 -1 -1 -1 -1 -1 -2 -2 -2 -2 -2 -3 -4 -4 -4 -4 -5 -5 -5 -5 -5 -5 -5 -5 -4 -3 -2 -1 -0 0 1 1 1 1 1
10 9 8 6 5 4 4 4 3 2 2 2 2 3 3 3 3 3 3 4 3 2 2 2 2 2 2 2 1 1 1 2 0 -1 -2 -2 -2 -2 -2 -2 -3 -3 -3 -3 -3 -4 -5 -5 -5 -6 -6 -6 -6 -6 -6 -6 -6 -6 -5 -4 -3 -2 -1 -1 -0 0 1 1 1
6 5 4 4 3 2 2 1 0 -0 -0 -1 -0 -0 -0 -0 -0 0 1 1 0 0 0 0 0 0 -0 -0 -0 0 1 1 -0 -1 -2 -3 -3 -3 -3 -3 -3 -4 -4 -3 -3 -4 -4 -4 -5 -5 -6 -6 -6 -5 -5 -5 -5 -5 -5 -4 -4 -3 -2 -2 -1 -0 0 0 0
4 3 2 2 2 2 1 0 -1 -1 -2 -2 -2 -2 -3 -3 -2 -2 -2 -2 -2 -2 -2 -1 -1 -1 -1 -1 -1 -1 -1 -2 -2 -2 -3 -3 -4 -5 -5 -4 -4 -4 -4 -4 -3 -3 -3 -3 -3 -3 -3 -3 -4 -4 -4 -4 -4 -4 -4 -4 -3 -3 -2 -1 -1 -1 -0 -0 -0
2 2 1 1 1 1 1 1 -1 -2 -3 -3 -4 -4 -4 -4 -4 -4 -4 -4 -4 -4 -3 -3 -3 -3 -2 -2 -2 -2 -2 -3 -3 -3 -3 -3 -4 -6 -7 -7 -7 -6 -5 -4 -4 -4 -3 -3 -3 -2 -2 -2 -2 -2 -3 -3 -3 -4 -3 -3 -2 -2 -1 -0 0 0 0 0 -0
-1 -1 -1 -1 -1 -0 0 -0 -1 -2 -3 -4 -4 -5 -5 -5 -5 -5 -5 -5 -4 -4 -4 -3 -3 -3 -2 -2 -2 -2 -2 -2 -2 -3 -3 -3 -4 -5 -6 -8 -9 -9 -8 -7 -7 -6 -5 -4 -3 -3 -2 -2 -1 -1 -2 -2 -2 -2 -2 -2 -1 -0 0 1 1 1 1 0 -0
-3 -3 -3 -3 -3 -2 -2 -1 -2 -2 -3 -4 -5 -5 -5 -5 -5 -5 -5 -5 -5 -4 -4 -3 -3 -3 -2 -2 -2 -2 -2 -2 -2 -2 -2 -2 -3 -3 -4 -5 -6 -7 -8 -8 -8 -8 -7 -6 -5 -4 -3 -2 -1 -1 -1 -1 -1 -1 -1 -0 1 1 2 3 3 2 2 1 0
-3 -3 -4 -4 -4 -4 -3 -2 -2 -2 -3 -4 -4 -5 -5 -5 -5 -5 -5 -4 -4 -4 -3 -3 -3 -3 -2 -2 -2 -2 -2 -2 -2 -2 -2 -2 -2 -2 -2 -2 -3 -4 -5 -6 -6 -6 -6 -6 -5 -4 -3 -2 -1 -0 -0 -0 0 0 1 1 2 2 3 3 4 3 3 2 1
-3 -3 -3 -4 -4 -4 -3 -3 -3 -3 -2 -2 -3 -3 -3 -3 -3 -3 -3 -3 -3 -3 -3 -2 -2 -2 -2 -2 -2 -2 -2 -2 -2 -2 -2 -2 -2 -2 -2 -2 -2 -2 -3 -3 -4 -5 -5 -5 -4 -4 -2 -2 -1 -0 0 1 1 1 2 2 2 3 3 3 4 4 4 3 2
-3 -3 -3 -3 -3 -3 -3 -3 -3 -2 -1 -1 -1 -1 -1 -1 -0 -0 -1 -1 -1 -1 -1 -1 -1 -1 -1 -1 -1 -1 -1 -2 -2 -2 -2 -2 -2 -2 -2 -2 -2 -2 -2 -2 -3 -3 -4 -4 -4 -3 -2 -1 -0 0 1 2 2 2 2 2 2 3 3 3 3 4 4 3 2
-2 -2 -2 -2 -2 -2 -2 -2 -2 -1 -1 -0 0 1 1 1 1 2 2 2 2 1 1 1 0 -0 -0 -0 -0 -0 -1 -1 -0 -0 -1 -1 -1 -1 -1 -1 -2 -2 -2 -2 -2 -2 -2 -3 -3 -3 -2 -1 0 1 2 2 3 3 3 3 3 3 2 2 3 3 2 2 2
-0 -1 -1 -1 -1 -1 -1 -1 -1 -1 -1 -0 0 1 1 1 1 2 2 2 2 2 2 2 1 1 0 0 -0 -1 -1 -1 -0 -0 -0 0 0 -0 -1 -1 -1 -1 -1 -1 -1 -1 -1 -2 -2 -2 -2 -1 0 1 2 3 4 4 4 4 3 3 2 1 2 2 2 2 2
-0 -0 -0 -0 -0 -0 -1 -1 -1 -1 -0 -0 0 1 1 1 1 1 1 1 1 1 1 1 1 0 0 -0 -1 -1 -1 -1 -1 -1 -0 0 -0 -0 -1 -1 -1 -1 -1 -1 -1 -1 -1 -1 -1 -1 -1 -1 0 1 2 4 4 4 4 4 4 3 2 1 1 1 1 1 1
-1 -1 -1 -1 -1 -1 -1 -1 -1 -1 -1 -1 -0 -0 -0 -0 -0 -0 -0 -0 -0 -0 -0 -0 -0 -1 -1 -1 -2 -2 -1 -1 -1 -1 -0 0 0 -0 -0 -1 -2 -2 -2 -1 -1 -1 -1 -1 -1 -1 -1 -0 1 1 2 3 4 4 4 4 4 4 3 2 1 1 1 0 -0
-1 -1 -1 -2 -2 -2 -2 -2 -2 -2 -2 -2 -2 -2 -1 -1 -1 -1 -1 -1 -1 -1 -1 -1 -1 -1 -2 -2 -2 -2 -2 -2 -1 -0 0 1 1 1 1 -0 -1 -1 -1 -2 -1 -1 -0 -1 -1 -0 -0 0 1 1 2 2 3 3 4 3 3 3 3 2 1 1 1 0 -0
1 1 0 0 -0 -1 -1 -2 -2 -2 -2 -3 -3 -3 -3 -3 -3 -3 -3 -3 -3 -3 -3 -2 -2 -2 -2 -2 -2 -2 -2 -2 -1 -1 0 2 2 2 2 1 0 0 -0 -1 -0 0 1 -0 0 0 0 1 1 1 1 1 2 2 2 2 2 2 2 1 0 0 0 -0 -1
4 4 4 3 3 3 2 2 1 1 1 0 -0 -1 -1 -1 -1 -1 -2 -2 -3 -4 -4 -3 -3 -3 -3 -3 -3 -3 -2 -1 -1 -1 -1 1 2 2 2 2 1 0 -0 0 1 1 2 1 1 1 1 1 1 1 1 1 1 1 2 2 1 1 1 1 -0 -1 -1 -0 -1
3 3 3 4 4 4 4 4 4 4 4 4 4 4 3 3 3 3 3 3 1 0 -1 -1 -1 -1 -1 -1 -1 -2 -2 -0 0 -0 -1 -0 1 2 2 2 1 0 -0 0 0 1 2 1 1 1 1 2 1 1 2 1 1 2 2 2 1 1 1 1 -0 -1 -1 -1 -1
1 1 2 2 2 2 2 3 3 3 3 3 4 4 4 4 5 5 6 6 6 5 4 3 3 4 4 4 3 2 2 2 3 3 2 2 2 2 3 2 1 0 -0 -1 -1 -1 0 0 -0 -0 -0 1 -0 0 1 1 1 1 2 2 2 2 2 2 1 0 0 -0 -1
1 2 2 2 2 2 2 2 2 2 2 2 2 2 2 3 3 4 4 5 6 6 5 4 4 4 5 6 6 5 4 4 5 5 6 5 5 6 6 6 4 3 2 1 -1 -1 -0 -1 -1 -2 -1 -0 -1 -1 0 1 0 0 1 2 2 2 2 3 2 1 1 1 1
3 4 4 4 4 4 4 3 3 3 4 3 3 3 3 3 3 3 3 4 4 5 5 4 3 3 4 5 5 5 4 2 3 4 4 5 5 7 8 8 8 8 7 6 4 3 2 1 -0 -1 -1 -1 -2 -1 -0 1 1 1 1 1 1 1 1 2 3 2 2 1 3
5 5 5 5 5 5 5 4 4 4 4 5 5 4 4 4 4 4 4 4 4 5 5 5 4 4 4 4 5 5 4 2 1 1 2 2 2 3 4 6 7 7 7 8 7 6 5 5 4 2 1 -0 -1 -1 -1 1 1 1 0 1 1 1 0 0 2 3 2 2 3
Height
5634 5636 5639 5643 5647 5651 5656 5660 5663 5666 5668 5670 5673 5674 5676 5677 5679 5681 5683 5685 5687 5688 5689 5690 5692 5694 5695 5697 5698 5699 5701 5702 5704 5705 5707 5707 5707 5707 5706 5707 5708 5710 5711 5712 5713 5715 5716 5717 5717 5718 5717 5717 5716 5716 5717 5717 5719 5720 5720 5720 5721 5721 5722 5722 5723 5723 5723 5723 5724
5633 5636 5639 5642 5647 5651 5655 5659 5662 5665 5667 5669 5671 5672 5674 5675 5677 5679 5681 5683 5685 5686 5687 5688 5689 5690 5692 5694 5695 5696 5697 5698 5699 5700 5702 5703 5704 5705 5705 5705 5705 5706 5707 5709 5711 5712 5714 5715 5716 5717 5717 5716 5717 5716 5716 5716 5717 5717 5717 5716 5717 5718 5719 5720 5720 5720 5721 5721 5721
5632 5635 5638 5642 5647 5653 5657 5660 5663 5665 5667 5669 5670 5670 5672 5674 5675 5677 5679 5681 5682 5684 5685 5686 5686 5687 5688 5690 5691 5692 5694 5695 5695 5696 5697 5698 5700 5701 5703 5705 5706 5707 5708 5709 5709 5709 5710 5711 5713 5714 5714 5715 5715 5715 5715 5716 5716 5716 5716 5715 5714 5714 5714 5715 5716 5717 5718 5718 5719
5631 5634 5638 5642 5646 5651 5656 5658 5662 5664 5666 5667 5668 5669 5670 5672 5673 5675 5676 5678 5680 5681 5682 5683 5684 5685 5685 5686 5687 5688 5690 5691 5693 5694 5694 5695 5695 5697 5698 5700 5702 5704 5705 5706 5706 5706 5706 5708 5710 5710 5711 5710 5711 5711 5712 5712 5713 5713 5713 5713 5713 5713 5713 5712 5713 5713 5714 5714 5715
5631 5634 5637 5641 5645 5648 5651 5655 5659 5661 5662 5663 5665 5666 5668 5670 5671 5673 5674 5676 5677 5678 5680 5680 5681 5682 5683 5684 5685 5685 5686 5687 5688 5690 5691 5691 5692 5693 5694 5695 5697 5699 5701 5703 5703 5703 5704 5705 5706 5706 5707 5707 5707 5707 5708 5709 5710 5709 5709 5709 5709 5709 5710 5710 5711 5711 5711 5711 5712
5631 5634 5637 5641 5644 5647 5651 5654 5657 5658 5659 5660 5662 5664 5665 5667 5668 5670 5672 5673 5675 5676 5677 5678 5679 5679 5680 5681 5682 5683 5683 5684 5685 5685 5687 5688 5689 5690 5691 5692 5693 5695 5696 5698 5699 5699 5699 5700 5701 5701 5701 5702 5702 5702 5703 5705 5705 5706 5706 5705 5705 5706 5706 5706 5707 5708 5708 5708 5709
5631 5634 5637 5641 5645 5647 5650 5652 5654 5655 5657 5658 5660 5661 5663 5664 5666 5667 5669 5670 5672 5674 5675 5676 5676 5677 5678 5679 5680 5680 5681 5681 5682 5683 5684 5685 5686 5687 5688 5689 5690 5691 5692 5693 5694 5694 5695 5695 5696 5697 5697 5698 5698 5698 5699 5700 5700 5701 5701 5702 5702 5703 5703 5704 5704 5705 5705 5705 5706
5631 5634 5637 5641 5643 5646 5648 5650 5652 5653 5655 5656 5657 5659 5660 5661 5662 5664 5665 5667 5669 5670 5672 5674 5675 5675 5676 5677 5678 5679 5679 5680 5680 5680 5681 5682 5683 5684 5685 5686 5687 5688 5689 5690 5690 5691 5691 5691 5692 5692 5692 5693 5693 5694 5694 5695 5695 5696 5696 5697 5698 5699 5699 5700 5700 5701 5702 5702 5703
5632 5635 5638 5640 5642 5645 5647 5649 5650 5651 5652 5654 5655 5656 5657 5659 5660 5661 5662 5664 5665 5667 5669 5670 5672 5674 5675 5676 5677 5677 5678 5678 5678 5679 5679 5680 5680 5681 5682 5683 5684 5685 5685 5686 5686 5687 5688 5688 5688 5688 5689 5689 5689 5689 5690 5691 5693 5693 5693 5694 5695 5696 5696 5697 5697 5698 5699 5700 5700
5633 5636 5638 5639 5641 5643 5645 5646 5648 5649 5650 5651 5653 5654 5655 5656 5658 5659 5660 5662 5663 5665 5666 5667 5668 5670 5672 5673 5674 5675 5675 5676 5676 5676 5677 5677 5677 5678 5679 5679 5680 5680 5681 5681 5682 5683 5684 5684 5684 5684 5685 5685 5685 5686 5687 5688 5690 5690 5691 5691 5692 5693 5694 5694 5695 5696 5697 5698 5698
5632 5635 5636 5637 5639 5640 5641 5643 5645 5647 5648 5649 5650 5652 5653 5654 5656 5657 5658 5660 5660 5662 5664 5665 5666 5667 5667 5668 5670 5671 5673 5673 5673 5673 5674 5674 5674 5675 5675 5675 5676 5677 5677 5678 5679 5680 5680 5680 5680 5681 5681 5681 5682 5682 5683 5684 5686 5687 5687 5688 5689 5690 5691 5691 5692 5693 5694 5694 5695
5630 5632 5633 5634 5636 5638 5640 5641 5644 5645 5647 5647 5648 5650 5651 5652 5653 5655 5656 5657 5659 5660 5661 5662 5663 5664 5665 5666 5667 5667 5668 5669 5670 5670 5670 5671 5671 5672 5672 5673 5673 5674 5674 5675 5676 5677 5677 5677 5678 5678 5679 5679 5679 5680 5680 5681 5682 5683 5684 5684 5685 5686 5687 5687 5688 5689 5690 5690 5691
5628 5630 5632 5633 5634 5636 5638 5640 5642 5643 5644 5645 5646 5648 5649 5650 5650 5652 5653 5655 5656 5657 5658 5659 5660 5661 5662 5663 5664 5664 5665 5665 5666 5666 5666 5667 5667 5668 5669 5669 5670 5670 5671 5672 5673 5673 5674 5674 5675 5675 5675 5676 5677 5677 5678 5678 5679 5680 5681 5681 5682 5682 5683 5683 5684 5685 5686 5687 5687
5627 5629 5631 5633 5633 5634 5636 5638 5639 5641 5642 5643 5645 5645 5646 5647 5648 5650 5651 5652 5653 5653 5654 5655 5656 5657 5658 5659 5660 5661 5661 5661 5661 5662 5662 5663 5663 5664 5665 5666 5667 5668 5668 5668 5669 5670 5670 5670 5671 5671 5672 5673 5674 5674 5675 5675 5676 5676 5677 5678 5678 5679 5679 5680 5680 5681 5683 5683 5683
5626 5628 5630 5631 5632 5633 5635 5636 5638 5639 5641 5642 5643 5644 5645 5645 5646 5648 5649 5650 5651 5651 5651 5652 5652 5653 5654 5655 5656 5657 5657 5658 5658 5659 5659 5660 5660 5660 5661 5662 5663 5664 5665 5665 5665 5666 5666 5667 5667 5668 5669 5670 5670 5671 5671 5672 5672 5673 5674 5674 5675 5675 5675 5676 5677 5677 5679 5679 5678
5625 5626 5628 5630 5632 5633 5635 5636 5637 5638 5639 5640 5640 5641 5642 5643 5644 5645 5647 5649 5649 5650 5650 5650 5650 5651 5652 5652 5653 5654 5655 5655 5655 5656 5656 5657 5658 5658 5659 5659 5660 5660 5661 5662 5663 5664 5665 5665 5665 5666 5666 5667 5668 5668 5669 5670 5670 5670 5670 5671 5671 5672 5672 5673 5673 5674 5674 5674 5674
5624 5626 5628 5630 5632 5633 5634 5635 5636 5637 5638 5638 5639 5640 5641 5641 5642 5644 5645 5646 5647 5648 5648 5649 5649 5649 5650 5650 5651 5651 5652 5652 5653 5653 5654 5655 5655 5656 5657 5657 5658 5658 5659 5660 5660 5661 5661 5662 5663 5663 5664 5664 5665 5665 5666 5667 5667 5668 5668 5668 5668 5669 5669 5669 5670 5670 5670 5670 5671
5623 5626 5628 5630 5632 5633 5634 5634 5635 5635 5636 5637 5637 5638 5639 5640 5641 5642 5643 5644 5645 5646 5646 5646 5647 5647 5648 5648 5649 5650 5650 5650 5650 5651 5651 5652 5653 5654 5655 5655 5655 5656 5657 5657 5658 5658 5659 5659 5660 5660 5661 5661 5662 5663 5663 5664 5664 5665 5665 5665 5665 5666 5666 5666 5666 5666 5666 5667 5667
5622 5625 5627 5629 5630 5631 5631 5631 5632 5633 5634 5635 5635 5636 5637 5638 5639 5640 5640 5641 5642 5643 5644 5644 5644 5645 5645 5646 5646 5647 5648 5648 5649 5649 5649 5650 5650 5651 5652 5652 5653 5654 5654 5655 5655 5655 5656 5656 5656 5657 5658 5658 5659 5660 5660 5661 5661 5662 5662 5662 5663 5663 5663 5663 5662 5663 5663 5663 5663
5622 5623 5625 5626 5628 5628 5629 5629 5630 5631 5632 5633 5634 5635 5635 5636 5637 5637 5638 5639 5639 5640 5641 5641 5642 5642 5643 5643 5644 5645 5645 5646 5646 5647 5647 5647 5648 5648 5649 5650 5650 5651 5651 5652 5652 5652 5653 5653 5654 5654 5655 5655 5656 5656 5657 5658 5658 5659 5659 5659 5659 5659 5659 5659 5659 5659 5659 5659 5659
5621 5622 5623 5625 5626 5627 5627 5628 5629 5630 5631 5632 5632 5633 5634 5635 5635 5636 5636 5637 5637 5638 5638 5639 5640 5640 5640 5641 5642 5642 5643 5643 5643 5644 5644 5645 5645 5645 5646 5646 5647 5648 5648 5648 5649 5649 5650 5650 5650 5651 5651 5652 5653 5653 5654 5654 5655 5655 5655 5655 5656 5655 5655 5655 5655 5655 5655 5655 5655
5620 5621 5622 5624 5625 5625 5626 5626 5627 5628 5629 5630 5631 5632 5633 5633 5634 5634 5635 5635 5635 5636 5636 5637 5637 5638 5639 5639 5639 5640 5640 5640 5641 5641 5641 5642 5642 5642 5643 5643 5644 5644 5645 5645 5645 5645 5646 5646 5646 5647 5648 5648 5649 5649 5649 5650 5650 5651 5651 5651 5651 5651 5651 5651 5651 5651 5651 5650 5650
5620 5621 5622 5623 5624 5624 5625 5625 5625 5626 5628 5629 5630 5630 5631 5632 5632 5633 5633 5634 5634 5634 5635 5635 5635 5636 5636 5637 5637 5637 5638 5638 5638 5638 5638 5639 5639 5639 5639 5640 5640 5640 5641 5641 5642 5642 5642 5642 5642 5643 5643 5644 5644 5644 5645 5645 5646 5646 5647 5647 5647 5647 5647 5647 5647 5646 5646 5646 5646
5619 5620 5621 5622 5623 5623 5623 5624 5624 5625 5626 5627 5628 5629 5629 5630 5630 5631 5631 5632 5632 5632 5633 5633 5634 5634 5634 5635 5635 5635 5635 5635 5635 5635 5635 5635 5635 5635 5635 5636 5636 5636 5637 5637 5638 5638 5638 5638 5639 5639 5639 5639 5640 5640 5640 5641 5641 5642 5642 5642 5642 5642 5642 5642 5642 5642 5642 5642 5641
5618 5619 5620 5621 5621 5622 5622 5622 5623 5623 5624 5625 5626 5626 5627 5628 5628 5629 5629 5629 5630 5630 5630 5631 5631 5631 5632 5632 5632 5632 5632 5632 5632 5632 5632 5632 5632 5632 5632 5632 5632 5632 5632 5633 5633 5634 5634 5634 5634 5635 5635 5635 5635 5635 5635 5636 5636 5636 5637 5637 5637 5637 5637 5637 5637 5637 5637 5637 5637
5617 5618 5619 5620 5620 5621 5621 5621 5621 5621 5622 5623 5623 5624 5625 5625 5625 5626 5626 5627 5627 5627 5628 5628 5628 5629 5629 5629 5629 5629 5629 5629 5629 5629 5629 5629 5629 5629 5628 5628 5629 5629 5629 5629 5629 5629 5629 5629 5630 5630 5630 5630 5630 5630 5631 5631 5631 5631 5631 5632 5632 5632 5632 5632 5632 5632 5632 5632 5632
5616 5617 5618 5618 5619 5620 5620 5620 5620 5620 5620 5620 5621 5621 5622 5622 5623 5623 5624 5624 5624 5625 5625 5625 5625 5625 5626 5626 5626 5626 5626 5626 5625 5625 5625 5625 5625 5625 5625 5625 5624 5624 5625 5625 5625 5625 5625 5625 5625 5625 5625 5625 5625 5626 5626 5626 5626 5626 5626 5626 5626 5626 5626 5626 5626 5626 5626 5626 5626
5615 5616 5616 5617 5618 5618 5618 5618 5618 5618 5618 5618 5619 5619 5619 5620 5620 5620 5621 5621 5621 5621 5622 5622 5622 5622 5622 5622 5622 5622 5622 5622 5622 5622 5621 5621 5621 5621 5620 5620 5620 5620 5620 5620 5620 5620 5620 5621 5621 5621 5621 5621 5621 5621 5621 5620 5620 5621 5621 5621 5621 5621 5621 5621 5621 5621 5621 5621 5621
5615 5615 5615 5616 5616 5616 5617 5617 5617 5617 5617 5617 5617 5617 5617 5617 5617 5618 5618 5618 5618 5619 5619 5619 5619 5619 5619 5619 5619 5619 5619 5619 5618 5618 5618 5617 5617 5616 5616 5616 5616 5616 5615 5616 5616 5616 5616 5616 5616 5616 5616 5616 5616 5616 5616 5615 5615 5615 5615 5615 5615 5615 5615 5615 5615 5615 5615 5615 5615
5614 5614 5614 5615 5615 5615 5615 5615 5615 5615 5615 5615 5615 5615 5615 5615 5615 5615 5615 5615 5615 5615 5615 5615 5616 5616 5616 5616 5615 5615 5615 5615 5615 5614 5614 5613 5613 5612 5612 5612 5611 5611 5611 5611 5611 5611 5611 5611 5611 5611 5611 5611 5611 5611 5611 5611 5610 5610 5610 5610 5610 5609 5609 5609 5609 5609 5609 5609 5610
5613 5613 5613 5614 5614 5614 5614 5614 5614 5614 5614 5614 5613 5613 5613 5613 5613 5613 5613 5613 5613 5612 5612 5613 5613 5613 5612 5612 5612 5612 5612 5611 5611 5610 5610 5610 5609 5609 5608 5608 5607 5607 5607 5607 5606 5606 5606 5606 5606 5605 5605 5606 5606 5606 5606 5606 5605 5605 5605 5605 5604 5604 5604 5604 5604 5604 5604 5604 5604
5611 5611 5611 5612 5612 5612 5612 5612 5612 5612 5612 5612 5611 5611 5611 5611 5611 5610 5610 5610 5610 5610 5610 5610 5610 5609 5609 5609 5609 5608 5608 5607 5607 5606 5606 5605 5605 5604 5604 5603 5603 5602 5602 5602 5602 5601 5601 5600 5600 5600 5600 5600 5600 5600 5600 5600 5600 5600 5600 5599 5599 5599 5598 5598 5598 5598 5598 5598 5598
5608 5609 5609 5609 5610 5610 5610 5610 5610 5610 5610 5610 5609 5609 5609 5609 5608 5608 5608 5607 5607 5607 5607 5606 5606 5606 5605 5605 5605 5604 5604 5603 5603 5602 5601 5601 5600 5600 5599 5598 5598 5597 5597 5597 5596 5596 5595 5595 5595 5595 5595 5595 5595 5595 5595 5595 5594 5594 5594 5594 5593 5593 5593 5593 5593 5592 5592 5592 5592
5605 5606 5606 5606 5606 5606 5607 5607 5607 5607 5607 5606 5606 5606 5606 5605 5605 5605 5605 5604 5604 5603 5603 5603 5602 5602 5601 5601 5600 5600 5599 5599 5598 5597 5597 5596 5596 5595 5594 5594 5593 5592 5592 5592 5591 5590 5590 5590 5590 5589 5589 5589 5589 5589 5589 5589 5588 5588 5588 5588 5587 5587 5587 5587 5587 5587 5586 5586 5586
5603 5603 5603 5603 5603 5603 5603 5603 5603 5603 5603 5603 5603 5602 5602 5602 5601 5601 5600 5600 5599 5599 5598 5598 5597 5597 5596 5595 5595 5594 5594 5593 5592 5592 5591 5591 5590 5590 5589 5588 5587 5587 5586 5586 5585 5585 5584 5584 5583 5583 5583 5583 5583 5583 5583 5582 5582 5582 5582 5582 5581 5581 5581 5580 5580 5580 5580 5580 5580
5600 5600 5600 5600 5600 5600 5600 5600 5600 5600 5599 5599 5599 5599 5598 5598 5597 5597 5596 5595 5595 5594 5594 5593 5592 5592 5591 5590 5589 5589 5588 5587 5587 5586 5585 5585 5585 5584 5583 5582 5581 5580 5580 5580 5579 5578 5578 5577 5577 5576 5576 5576 5576 5576 5576 5576 5576 5576 5575 5575 5575 5575 5574 5574 5574 5574 5574 5574 5574
5597 5597 5597 5597 5596 5596 5596 5596 5596 5595 5595 5595 5595 5594 5594 5593 5593 5592 5592 5591 5590 5590 5589 5588 5588 5587 5586 5585 5584 5583 5583 5582 5581 5580 5580 5579 5578 5578 5577 5576 5575 5574 5573 5573 5572 5571 5571 5570 5570 5569 5569 5569 5569 5569 5569 5569 5569 5569 5569 5569 5568 5568 5568 5567 5567 5567 5567 5567 5568
5594 5593 5593 5593 5593 5592 5592 5592 5591 5591 5590 5590 5590 5589 5589 5588 5588 5587 5586 5586 5585 5585 5584 5583 5583 5582 5581 5580 5580 5579 5578 5577 5576 5575 5575 5574 5573 5572 5571 5570 5568 5567 5566 5565 5565 5564 5563 5562 5562 5561 5561 5561 5561 5561 5561 5561 5561 5561 5561 5561 5561 5561 5560 5560 5560 5560 5560 5560 5560
5592 5591 5591 5590 5590 5590 5589 5588 5588 5587 5587 5586 5585 5585 5584 5583 5583 5582 5581 5580 5580 5579 5578 5578 5577 5576 5576 5575 5574 5573 5572 5572 5571 5570 5570 5569 5568 5567 5566 5565 5563 5561 5560 5559 5558 5556 5555 5555 5554 5553 5553 5553 5553 5553 5553 5553 5553 5553 5553 5553 5553 5553 5553 5553 5553 5553 5553 5553 5553
5591 5590 5590 5589 5588 5588 5587 5586 5586 5585 5584 5584 5583 5582 5581 5580 5579 5578 5577 5576 5575 5575 5574 5573 5572 5571 5570 5570 5569 5568 5567 5566 5565 5565 5564 5563 5562 5561 5560 5559 5557 5556 5554 5553 5551 5550 5549 5547 5546 5545 5545 5544 5544 5544 5544 5545 5545 5545 5545 5545 5545 5545 5545 5545 5545 5546 5546 5546 5546
5589 5589 5588 5587 5586 5586 5585 5585 5584 5583 5582 5581 5580 5580 5579 5578 5576 5575 5575 5574 5572 5571 5570 5569 5568 5567 5566 5565 5564 5563 5562 5560 5559 5558 5557 5556 5555 5554 5553 5552 5550 5549 5548 5546 5545 5544 5542 5541 5540 5538 5537 5536 5536 5535 5535 5535 5536 5536 5536 5536 5536 5537 5537 5537 5537 5538 5538 5538 5538